CW4518 Weather Reports


Display with metric or nautical units.
time (UTC)temp
F
wind
direction
speed
MPH
gust
MPH
rain 1hr
in
rain 24hr
in
rain mn
in
humidity
%
barometer
mb
20260901165004 75 288 0.0 3.0 0.00 0.00 0.00 60 1012.3
20260901164518 75 228 0.0 4.0 0.00 0.00 0.00 61 1012.5
20260901164007 75 242 2.0 4.0 0.00 0.00 0.00 59 1012.5
20260901163509 76 210 1.0 5.0 0.00 0.00 0.00 58 1012.7
20260901163007 76 266 2.0 5.0 0.00 0.00 0.00 59 1012.7
20260901162505 76 291 1.0 3.0 0.00 0.00 0.00 61 1012.5
20260901162014 76 219 0.0 4.0 0.00 0.00 0.00 62 1012.5
20260901161504 75 256 1.0 4.0 0.00 0.00 0.00 61 1012.5
20260901161008 76 254 2.0 3.0 0.00 0.00 0.00 60 1012.5
20260901160514 76 257 1.0 3.0 0.00 0.00 0.00 61 1012.4
20260901160024 75 292 0.0 3.0 0.00 0.00 0.00 64 1012.4
20260901155503 75 269 0.0 4.0 0.00 0.00 0.00 62 1012.5
20260901155010 75 255 1.0 4.0 0.00 0.00 0.00 61 1012.3
20260901154505 75 216 2.0 4.0 0.00 0.00 0.00 61 1012.3
20260901154006 75 251 0.0 4.0 0.00 0.00 0.00 63 1012.3
20260901153508 75 278 1.0 4.0 0.00 0.00 0.00 63 1012.3
20260901153016 75 317 1.0 3.0 0.00 0.00 0.00 62 1012.4
20260901152507 75 254 2.0 3.0 0.00 0.00 0.00 61 1012.3
20260901152005 76 257 1.0 2.0 0.00 0.00 0.00 64 1012.3
20260901151513 76 220 1.0 2.0 0.00 0.00 0.00 65 1012.3
20260901151010 76 279 0.0 2.0 0.00 0.00 0.00 67 1012.3
20260901150506 76 278 0.0 2.0 0.00 0.00 0.00 67 1012.2
20260901150008 75 277 0.0 2.0 0.00 0.00 0.00 69 1012.1
20260901145516 75 248 0.0 1.0 0.00 0.00 0.00 68 1012.0
20260901145013 75 232 0.0 3.0 0.00 0.00 0.00 69 1012.0
20260901144507 75 232 0.0 3.0 0.00 0.00 0.00 68 1012.0
20260901144009 75 257 1.0 2.0 0.00 0.00 0.00 69 1012.1
20260901143513 75 229 0.0 1.0 0.00 0.00 0.00 76 1012.1
20260901143005 74 266 0.0 0.0 0.00 0.00 0.00 77 1012.1
20260901142503 74 266 0.0 0.0 0.00 0.00 0.00 77 1012.1
20260901142003 74 266 0.0 0.0 0.00 0.00 0.00 78 1012.2
20260901141509 73 266 0.0 0.0 0.00 0.00 0.00 79 1012.1
20260901141002 73 266 0.0 0.0 0.00 0.00 0.00 82 1012.1
20260901140509 73 266 0.0 0.0 0.00 0.00 0.00 82 1012.3
20260901140023 72 266 0.0 0.0 0.00 0.00 0.00 85 1012.3
20260901135511 71 266 0.0 0.0 0.00 0.00 0.00 87 1012.4
20260901135009 71 266 0.0 0.0 0.00 0.00 0.00 88 1012.4
20260901134522 70 266 0.0 0.0 0.00 0.00 0.00 89 1012.4
20260901134013 69 266 0.0 0.0 0.00 0.00 0.00 90 1012.5
20260901133506 69 266 0.0 0.0 0.00 0.00 0.00 94 1012.5
20260901133016 68 266 0.0 0.0 0.00 0.00 0.00 95 1012.4
20260901132517 67 266 0.0 0.0 0.00 0.00 0.00 95 1012.4
20260901132004 66 266 0.0 0.0 0.00 0.00 0.00 95 1012.4
20260901131507 65 266 0.0 0.0 0.00 0.00 0.00 95 1012.3
20260901131011 64 244 0.0 0.0 0.00 0.00 0.00 95 1012.3
20260901130508 62 244 0.0 0.0 0.00 0.00 0.00 95 1012.2
20260901130017 62 244 0.0 0.0 0.00 0.00 0.00 95 1012.1
20260901125509 61 244 0.0 0.0 0.00 0.00 0.00 95 1012.2
20260901125010 60 244 0.0 0.0 0.00 0.00 0.00 95 1012.2
20260901124518 59 244 0.0 0.0 0.00 0.00 0.00 95 1012.1
20260901124006 58 244 0.0 0.0 0.00 0.00 0.00 95 1012.1
20260901123510 58 244 0.0 0.0 0.00 0.00 0.00 95 1012.1
20260901123026 57 244 0.0 0.0 0.00 0.00 0.00 95 1012.2
20260901122510 57 244 0.0 0.0 0.00 0.00 0.00 95 1012.2
20260901122011 56 244 0.0 0.0 0.00 0.00 0.00 94 1012.2
20260901121523 56 244 0.0 0.0 0.00 0.00 0.00 94 1012.1
20260901121016 56 244 0.0 0.0 0.00 0.00 0.00 94 1012.1
20260901120508 56 244 0.0 0.0 0.00 0.00 0.00 94 1012.0
20260901120023 56 244 0.0 0.0 0.00 0.00 0.00 94 1012.0
20260901115517 56 244 0.0 0.0 0.00 0.00 0.00 94 1011.9
20260901115007 56 244 0.0 0.0 0.00 0.00 0.00 94 1011.9
20260901114516 56 244 0.0 0.0 0.00 0.00 0.00 94 1011.9
20260901114012 56 244 0.0 0.0 0.00 0.00 0.00 94 1011.8
20260901113512 56 244 0.0 0.0 0.00 0.00 0.00 94 1011.7
20260901113010 56 244 0.0 0.0 0.00 0.00 0.00 94 1011.7
20260901112513 56 244 0.0 0.0 0.00 0.00 0.00 94 1011.6
20260901112015 56 244 0.0 0.0 0.00 0.00 0.00 94 1011.6
20260901111507 56 244 0.0 0.0 0.00 0.00 0.00 94 1011.6
20260901111009 56 244 0.0 0.0 0.00 0.00 0.00 94 1011.5
20260901110513 56 244 0.0 0.0 0.00 0.00 0.00 94 1011.5
20260901110030 56 244 0.0 0.0 0.00 0.00 0.00 94 1011.6
20260901105507 56 244 0.0 0.0 0.00 0.00 0.00 93 1011.6
20260901105016 56 235 0.0 0.0 0.00 0.00 0.00 93 1011.5
20260901104512 56 235 0.0 0.0 0.00 0.00 0.00 93 1011.5
20260901104010 56 235 0.0 0.0 0.00 0.00 0.00 93 1011.6
20260901103508 56 235 0.0 0.0 0.00 0.00 0.00 94 1011.7
20260901103016 56 235 0.0 0.0 0.00 0.00 0.00 94 1011.7
20260901102511 56 235 0.0 0.0 0.00 0.00 0.00 94 1011.7
20260901102010 56 235 0.0 0.0 0.00 0.00 0.00 94 1011.7
20260901101520 57 235 0.0 0.0 0.00 0.00 0.00 1011.7
20260901101018 57 235 0.0 0.0 0.00 0.00 0.00 1011.7
20260901100517 57 235 0.0 0.0 0.00 0.00 0.00 94 1011.7
20260901100017 57 235 0.0 0.0 0.00 0.01 0.00 94 1011.7
20260901095514 57 235 0.0 0.0 0.00 0.01 0.00 94 1011.8
20260901095016 57 235 0.0 0.0 0.00 0.01 0.00 94 1011.8
20260901094514 57 235 0.0 0.0 0.00 0.01 0.00 94 1011.7
20260901094013 57 235 0.0 0.0 0.00 0.02 0.00 94 1011.7
20260901093649 57 235 0.0 0.0 0.00 0.02 0.00 94 1011.7
20260901093644 57 235 0.0 0.0 0.00 0.02 0.00 93 1011.7
20260901093639 57 235 0.0 0.0 0.00 0.02 0.00 93 1011.7
20260901093637 57 235 0.0 0.0 0.00 0.02 0.00 93 1011.7
20260901091008 57 235 0.0 0.0 0.00 0.02 0.00 93 1011.7
20260901090511 57 235 0.0 0.0 0.00 0.03 0.00 93 1011.8
20260901090027 57 235 0.0 0.0 0.00 0.03 0.00 93 1011.8
20260901085516 58 235 0.0 0.0 0.00 0.03 0.00 93 1011.8
20260901085011 58 235 0.0 0.0 0.00 0.03 0.00 93 1011.8
20260901084507 58 235 0.0 0.0 0.00 0.03 0.00 93 1011.8
20260901084006 58 235 0.0 0.0 0.00 0.04 0.00 93 1011.9
20260901083505 58 235 0.0 0.0 0.00 0.05 0.00 93 1011.9
20260901083009 58 235 0.0 0.0 0.00 0.06 0.00 93 1011.9
20260901082515 58 235 0.0 0.0 0.00 0.07 0.00 93 1011.9
20260901082009 59 235 0.0 0.0 0.00 0.07 0.00 93 1011.8
20260901081517 59 235 0.0 0.0 0.00 0.07 0.00 93 1011.8
20260901081015 59 235 0.0 0.0 0.00 0.07 0.00 93 1011.8
20260901080504 59 235 0.0 0.0 0.00 0.07 0.00 93 1011.8
20260901080249 59 235 0.0 0.0 0.00 0.07 0.00 93 1011.8
20260901080244 59 235 0.0 0.0 0.00 0.07 0.00 93 1011.8
20260901080240 60 235 0.0 0.0 0.00 0.07 0.00 93 1011.8
20260901080233 60 235 0.0 0.0 0.00 0.07 0.00 93 1011.7
20260901073010 60 225 0.0 0.0 0.00 0.08 0.00 93 1011.7
20260901072504 60 225 0.0 0.0 0.00 0.08 0.00 93 1011.7
20260901072006 60 225 0.0 0.0 0.00 0.08 0.00 93 1011.7
20260901071512 60 225 0.0 0.0 0.00 0.08 0.00 93 1011.7
20260901071007 61 225 0.0 0.0 0.00 0.08 0.00 93 1011.6
20260901070510 61 225 0.0 0.0 0.00 0.08 0.00 93 1011.6
20260901070319 61 225 0.0 0.0 0.00 0.08 0.00 93 1011.7
20260901070315 61 225 0.0 0.0 0.00 0.08 0.00 93 1011.7
20260901070304 62 225 0.0 0.0 0.00 0.08 0.00 93 1011.7
20260901063505 62 225 0.0 0.0 0.00 0.08 0.00 93 1011.7
20260901063024 62 225 0.0 0.0 0.00 0.08 0.00 93 1011.8
20260901062514 62 225 0.0 0.0 0.00 0.08 0.00 93 1011.7
20260901062005 63 225 0.0 0.0 0.00 0.08 0.00 93 1011.7
20260901061517 63 225 0.0 0.0 0.00 0.08 0.00 93 1011.8
20260901061008 63 225 0.0 0.0 0.00 0.08 0.00 93 1011.9
20260901060509 63 225 0.0 0.0 0.00 0.08 0.00 93 1011.9
20260901060009 64 225 0.0 0.0 0.00 0.08 0.00 93 1011.9
20260901055510 64 225 0.0 0.0 0.00 0.08 0.00 93 1011.9
20260901055010 64 225 0.0 0.0 0.00 0.08 0.00 93 1011.9
20260901054520 64 225 0.0 0.0 0.00 0.08 0.00 93 1011.9
20260901054010 64 225 0.0 0.0 0.00 0.08 0.00 93 1011.9
20260901053514 65 225 0.0 0.0 0.00 0.08 0.00 93 1011.8
20260901053027 65 225 0.0 0.0 0.00 0.08 0.00 93 1011.8
20260901052507 65 225 0.0 0.0 0.00 0.08 0.00 93 1011.8
20260901052013 65 225 0.0 0.0 0.00 0.08 0.00 93 1011.9
20260901051528 65 225 0.0 0.0 0.00 0.08 0.00 94 1011.9
20260901051018 66 225 0.0 0.0 0.00 0.08 0.00 94 1011.9
20260901050507 66 225 0.0 0.0 0.00 0.08 0.00 94 1011.9
20260901050013 66 225 0.0 0.0 0.00 0.08 0.00 94 1011.9
20260901045510 66 225 0.0 0.0 0.00 0.08 0.00 94 1011.8
20260901045009 66 225 0.0 0.0 0.00 0.08 0.00 94 1011.9
20260901044536 66 225 0.0 0.0 0.00 0.08 0.00 94 1011.9
20260901044018 66 225 0.0 0.0 0.00 0.08 0.00 94 1011.9
20260901043518 66 225 0.0 0.0 0.00 0.08 0.00 94 1011.9
20260901043015 66 225 0.0 0.0 0.00 0.08 0.00 94 1011.8
20260901042513 67 225 0.0 0.0 0.00 0.08 0.00 94 1011.8
20260901042015 67 225 0.0 0.0 0.00 0.08 0.00 94 1011.7
20260901041524 67 225 0.0 0.0 0.00 0.08 0.00 94 1011.8
20260901041013 67 225 0.0 0.0 0.00 0.08 0.00 94 1011.8
20260901040514 67 225 0.0 0.0 0.00 0.08 0.00 94 1011.8
20260901040033 67 225 0.0 0.0 0.00 0.08 0.00 94 1011.7
20260901035512 67 225 0.0 0.0 0.00 0.08 0.08 94 1011.6
20260901035008 67 225 0.0 0.0 0.00 0.08 0.08 94 1011.6
20260901034520 67 225 0.0 0.0 0.00 0.08 0.08 94 1011.6
20260901034007 67 225 0.0 0.0 0.00 0.08 0.08 94 1011.7
20260901033511 67 225 0.0 0.0 0.00 0.08 0.08 94 1011.7
20260901033049 67 225 0.0 0.0 0.00 0.08 0.08 94 1011.7
20260901032511 67 225 0.0 0.0 0.00 0.08 0.08 94 1011.7
20260901032011 67 225 0.0 0.0 0.00 0.08 0.08 93 1011.6
20260901031633 67 225 0.0 0.0 0.00 0.08 0.08 93 1011.6
20260901031626 67 225 0.0 0.0 0.00 0.08 0.08 92 1011.6
20260901025019 67 225 0.0 0.0 0.00 0.08 0.08 92 1011.6
20260901024522 67 225 0.0 0.0 0.00 0.08 0.08 92 1011.6
20260901024013 68 225 0.0 0.0 0.00 0.08 0.08 92 1011.6
20260901023515 68 225 0.0 0.0 0.00 0.08 0.08 92 1011.6
20260901023017 68 225 0.0 0.0 0.00 0.08 0.08 92 1011.6
20260901022512 68 225 0.0 0.0 0.00 0.08 0.08 92 1011.6
20260901022012 69 225 0.0 0.0 0.00 0.08 0.08 92 1011.6
20260901021523 69 225 0.0 0.0 0.00 0.08 0.08 92 1011.6
20260901021010 69 225 0.0 0.0 0.00 0.08 0.08 92 1011.6
20260901020512 69 225 0.0 0.0 0.00 0.08 0.08 92 1011.6
20260901020032 69 225 0.0 0.0 0.00 0.08 0.08 92 1011.6
20260901015515 69 225 0.0 0.0 0.00 0.08 0.08 92 1011.5
20260901015013 69 225 0.0 0.0 0.00 0.08 0.08 92 1011.5
20260901014528 69 225 0.0 0.0 0.00 0.08 0.08 92 1011.5
20260901014019 70 225 0.0 0.0 0.00 0.08 0.08 92 1011.5
20260901013511 70 225 0.0 0.0 0.00 0.08 0.08 92 1011.4
20260901013032 70 226 0.0 0.0 0.00 0.08 0.08 92 1011.4
20260901012517 70 226 0.0 0.0 0.00 0.08 0.08 91 1011.3
20260901012010 70 226 0.0 1.0 0.00 0.08 0.08 91 1011.3
20260901011621 70 225 0.0 1.0 0.00 0.08 0.08 91 1011.2
20260901011613 70 330 0.0 0.0 0.00 0.08 0.08 91 1011.0
20260901005019 70 330 0.0 0.0 0.00 0.08 0.08 91 1011.0
20260901004531 70 330 0.0 0.0 0.00 0.08 0.08 91 1011.0
20260901004011 70 330 0.0 1.0 0.00 0.08 0.08 90 1011.1
20260901003515 70 290 0.0 1.0 0.00 0.08 0.08 90 1011.1
20260901003040 71 309 0.0 0.0 0.00 0.08 0.08 90 1011.1
20260901002511 71 342 0.0 0.0 0.00 0.08 0.08 90 1011.0
20260901002014 71 319 0.0 1.0 0.00 0.08 0.08 90 1010.9
20260901001531 71 319 0.0 2.0 0.00 0.08 0.08 90 1010.9
20260901001016 71 9 0.0 2.0 0.00 0.08 0.08 90 1010.9
20260901000513 71 288 0.0 0.0 0.00 0.08 0.08 89 1011.0
20260901000031 71 279 0.0 2.0 0.00 0.08 0.08 89 1011.0
20260831235513 72 275 0.0 2.0 0.00 0.08 0.08 89 1011.0
20260831235010 72 252 0.0 2.0 0.00 0.08 0.08 88 1011.0
20260831234527 72 247 0.0 2.0 0.00 0.08 0.08 88 1011.0
20260831234017 72 267 0.0 1.0 0.00 0.08 0.08 89 1010.9
20260831233515 73 360 0.0 1.0 0.00 0.08 0.08 89 1010.9
20260831233019 73 343 0.0 0.0 0.00 0.08 0.08 89 1010.9
20260831232518 73 343 0.0 0.0 0.00 0.08 0.08 89 1010.8
20260831232019 73 343 0.0 0.0 0.00 0.08 0.08 88 1010.7
20260831231532 73 343 0.0 0.0 0.00 0.08 0.08 88 1010.7
20260831231013 73 343 0.0 0.0 0.00 0.08 0.08 88 1010.7
20260831230516 73 343 0.0 0.0 0.00 0.08 0.08 88 1010.7
20260831230254 73 343 0.0 0.0 0.00 0.08 0.08 88 1010.7
20260831230247 73 344 0.0 0.0 0.00 0.08 0.08 88 1010.7
20260831230243 73 344 0.0 0.0 0.00 0.08 0.08 88 1010.8
20260831230240 73 344 0.0 0.0 0.00 0.08 0.08 88 1010.7
20260831230237 73 344 0.0 0.0 0.00 0.08 0.08 87 1010.6
20260831223004 73 344 0.0 0.0 0.00 0.08 0.08 87 1010.5
20260831222504 73 344 0.0 0.0 0.00 0.08 0.08 87 1010.6
20260831222005 73 344 0.0 0.0 0.00 0.08 0.08 87 1010.6
20260831221504 73 344 0.0 2.0 0.00 0.08 0.08 89 1010.6
20260831221007 73 344 0.0 2.0 0.00 0.08 0.08 89 1010.6
20260831220505 73 267 0.0 2.0 0.00 0.08 0.08 89 1010.5
20260831220020 73 76 0.0 0.0 0.00 0.08 0.08 89 1010.6
20260831215507 73 76 0.0 0.0 0.00 0.08 0.08 88 1010.4
20260831215007 73 118 0.0 2.0 0.00 0.08 0.08 87 1010.6
20260831214511 73 118 0.0 2.0 0.00 0.08 0.08 87 1010.4
20260831214003 73 112 0.0 2.0 0.00 0.08 0.08 87 1010.4
20260831213511 73 151 1.0 4.0 0.00 0.08 0.08 86 1010.4
20260831213012 73 150 1.0 4.0 0.00 0.08 0.08 86 1010.3
20260831212506 74 139 0.0 2.0 0.00 0.08 0.08 86 1010.2
20260831212006 74 118 0.0 2.0 0.00 0.08 0.08 87 1010.2
20260831211506 74 136 0.0 2.0 0.00 0.08 0.08 87 1010.1
20260831211005 74 134 0.0 2.0 0.00 0.08 0.08 86 1010.1
20260831210504 74 134 0.0 2.0 0.00 0.08 0.08 86 1010.1
20260831210011 74 131 0.0 2.0 0.00 0.08 0.08 86 1010.0
20260831205510 74 117 0.0 2.0 0.00 0.08 0.08 86 1009.9
20260831205011 75 129 0.0 2.0 0.00 0.08 0.08 86 1009.9
20260831204508 74 116 0.0 0.0 0.00 0.08 0.08 87 1009.8
20260831204007 75 116 0.0 0.0 0.00 0.08 0.08 87 1009.8
20260831203506 75 112 0.0 0.0 0.00 0.08 0.08 86 1009.6
20260831203004 74 115 0.0 1.0 0.00 0.08 0.08 86 1009.6
20260831202512 74 115 0.0 4.0 0.00 0.08 0.08 86 1009.6
20260831202009 74 115 0.0 4.0 0.00 0.08 0.08 86 1009.6
20260831201516 74 150 0.0 2.0 0.00 0.08 0.08 86 1009.6
20260831201008 74 130 0.0 3.0 0.00 0.08 0.08 87 1009.7
20260831200503 74 160 0.0 3.0 0.00 0.08 0.08 87 1009.9
20260831200008 74 119 1.0 3.0 0.00 0.08 0.08 86 1009.7
20260831195504 74 152 0.0 2.0 0.00 0.08 0.08 86 1009.8
20260831195007 74 123 0.0 2.0 0.00 0.08 0.08 86 1009.7
20260831194519 74 96 0.0 5.0 0.00 0.08 0.08 86 1009.9
20260831194009 74 110 1.0 5.0 0.00 0.08 0.08 85 1009.9
20260831193508 75 135 3.0 5.0 0.00 0.08 0.08 84 1009.9
20260831193017 75 117 0.0 3.0 0.00 0.08 0.08 86 1009.8
20260831192511 75 138 0.0 4.0 0.00 0.08 0.08 86 1009.8
20260831192010 75 140 2.0 4.0 0.00 0.08 0.08 85 1009.9
20260831191512 75 136 0.0 3.0 0.00 0.08 0.08 85 1009.9
20260831191010 75 153 0.0 3.0 0.00 0.08 0.08 86 1009.9
20260831190507 75 149 0.0 2.0 0.00 0.08 0.08 86 1010.0
20260831190011 75 119 0.0 2.0 0.00 0.08 0.08 86 1010.1
20260831185513 75 83 1.0 2.0 0.00 0.08 0.08 85 1010.2
20260831185006 75 116 0.0 3.0 0.00 0.08 0.08 84 1010.2
20260831184633 75 107 0.0 3.0 0.00 0.08 0.08 85 1010.2
20260831184628 75 146 0.0 1.0 0.00 0.08 0.08 86 1010.2
20260831184623 75 141 0.0 2.0 0.00 0.08 0.08 85 1010.2
20260831182011 75 198 0.0 2.0 0.00 0.08 0.08 84 1010.3
20260831181517 75 192 0.0 4.0 0.00 0.08 0.08 84 1010.2
20260831181011 74 78 0.0 4.0 0.00 0.08 0.08 86 1010.2
20260831180510 74 212 0.0 3.0 0.00 0.08 0.08 86 1010.2
20260831180016 74 167 0.0 4.0 0.00 0.08 0.08 86 1010.3
20260831175512 73 167 0.0 4.0 0.00 0.08 0.08 87 1010.1
20260831175008 73 171 1.0 3.0 0.00 0.08 0.08 87 1010.2
20260831174517 73 124 1.0 3.0 0.00 0.08 0.08 87 1010.2
20260831174011 73 121 1.0 9.0 0.00 0.08 0.08 87 1010.3
20260831173510 73 178 2.0 9.0 0.00 0.08 0.08 87 1010.3
20260831173014 73 110 1.0 3.0 0.00 0.08 0.08 87 1010.2
20260831172513 73 153 1.0 3.0 0.00 0.08 0.08 88 1010.3
20260831172010 73 181 0.0 3.0 0.00 0.08 0.08 87 1010.2
20260831171512 72 109 0.0 2.0 0.00 0.08 0.08 88 1010.3
20260831171011 72 116 0.0 3.0 0.00 0.08 0.08 88 1010.4
20260831170510 72 205 0.0 3.0 0.00 0.08 0.08 87 1010.5
20260831170023 72 123 0.0 3.0 0.00 0.08 0.08 88 1010.5
20260831165511 71 171 0.0 3.0 0.00 0.08 0.08 88 1010.4